| time (UTC) | temp F | wind direction | speed MPH | gust MPH | rain 1hr in | rain 24hr in | rain mn in | humidity % | barometer mb |
| 20260905194533 | 97 | 294 | 3.0 | 8.0 | 0.00 | 0.02 | 0.02 | 31 | 1006.0 |
| 20260905193031 | 96 | 320 | 4.0 | 10.0 | 0.00 | 0.02 | 0.02 | 31 | 1006.3 |
| 20260905191528 | 96 | 217 | 3.0 | 9.0 | 0.00 | 0.02 | 0.02 | 30 | 1006.4 |
| 20260905190027 | 96 | 202 | 3.0 | 7.0 | 0.00 | 0.02 | 0.02 | 32 | 1006.6 |
| 20260905184530 | 95 | 196 | 1.0 | 7.0 | 0.00 | 0.02 | 0.02 | 32 | 1006.8 |
| 20260905183025 | 94 | 178 | 2.0 | 6.0 | 0.00 | 0.02 | 0.02 | 33 | 1007.1 |
| 20260905181523 | 94 | 223 | 0.0 | 4.0 | 0.00 | 0.02 | 0.02 | 32 | 1007.2 |
| 20260905180020 | 93 | 204 | 0.0 | 5.0 | 0.00 | 0.02 | 0.02 | 34 | 1007.3 |
| 20260905174524 | 92 | 204 | 3.0 | 8.0 | 0.00 | 0.02 | 0.02 | 34 | 1007.5 |
| 20260905173017 | 91 | 165 | 3.0 | 8.0 | 0.00 | 0.02 | 0.02 | 36 | 1007.5 |
| 20260905171515 | 91 | 162 | 2.0 | 6.0 | 0.00 | 0.02 | 0.02 | 37 | 1007.6 |
| 20260905170012 | 90 | 167 | 3.0 | 8.0 | 0.00 | 0.02 | 0.02 | 37 | 1008.0 |
| 20260905164514 | 89 | 166 | 4.0 | 10.0 | 0.00 | 0.02 | 0.02 | 38 | 1008.4 |
| 20260905163006 | 89 | 159 | 3.0 | 8.0 | 0.00 | 0.02 | 0.02 | 38 | 1008.5 |
| 20260905161505 | 88 | 170 | 5.0 | 9.0 | 0.00 | 0.02 | 0.02 | 39 | 1008.5 |
| 20260905160058 | 87 | 166 | 3.0 | 9.0 | 0.00 | 0.02 | 0.02 | 42 | 1008.5 |
| 20260905154607 | 86 | 157 | 6.0 | 10.0 | 0.00 | 0.02 | 0.02 | 42 | 1008.6 |
| 20260905153052 | 86 | 141 | 4.0 | 11.0 | 0.00 | 0.02 | 0.02 | 42 | 1008.6 |
| 20260905151547 | 84 | 144 | 5.0 | 12.0 | 0.00 | 0.02 | 0.02 | 46 | 1008.5 |
| 20260905150043 | 83 | 144 | 6.0 | 11.0 | 0.00 | 0.02 | 0.02 | 46 | 1008.8 |
| 20260905144540 | 82 | 147 | 3.0 | 13.0 | 0.00 | 0.02 | 0.02 | 47 | 1008.9 |
| 20260905143037 | 83 | 134 | 1.0 | 8.0 | 0.00 | 0.02 | 0.02 | 47 | 1009.0 |
| 20260905141533 | 81 | 90 | 2.0 | 12.0 | 0.00 | 0.02 | 0.02 | 49 | 1009.2 |
| 20260905140030 | 79 | 118 | 2.0 | 8.0 | 0.00 | 0.02 | 0.02 | 50 | 1009.3 |
| 20260905134528 | 79 | 139 | 3.0 | 11.0 | 0.00 | 0.02 | 0.02 | 50 | 1009.5 |
| 20260905133035 | 78 | 57 | 3.0 | 10.0 | 0.00 | 0.02 | 0.02 | 51 | 1009.7 |
| 20260905131527 | 76 | 28 | 7.0 | 15.0 | 0.00 | 0.02 | 0.02 | 54 | 1009.7 |
| 20260905130020 | 75 | 51 | 8.0 | 15.0 | 0.00 | 0.02 | 0.02 | 55 | 1009.4 |
| 20260905124518 | 76 | 52 | 5.0 | 13.0 | 0.00 | 0.02 | 0.02 | 56 | 1009.8 |
| 20260905123016 | 76 | 39 | 6.0 | 15.0 | 0.00 | 0.02 | 0.02 | 56 | 1009.4 |
| 20260905121512 | 75 | 127 | 2.0 | 7.0 | 0.00 | 0.02 | 0.02 | 56 | 1008.7 |
| 20260905120007 | 76 | 98 | 4.0 | 9.0 | 0.00 | 0.02 | 0.02 | 56 | 1008.5 |
| 20260905114505 | 76 | 49 | 2.0 | 9.0 | 0.00 | 0.02 | 0.02 | 55 | 1008.4 |
| 20260905113002 | 77 | 49 | 4.0 | 9.0 | 0.00 | 0.02 | 0.02 | 55 | 1008.1 |
| 20260905111601 | 77 | 47 | 3.0 | 13.0 | 0.00 | 0.02 | 0.02 | 55 | 1008.0 |
| 20260905110100 | 78 | 59 | 4.0 | 9.0 | 0.00 | 0.02 | 0.02 | 55 | 1008.0 |
| 20260905104557 | 78 | 22 | 4.0 | 12.0 | 0.00 | 0.02 | 0.02 | 55 | 1007.8 |
| 20260905103058 | 80 | 350 | 0.0 | 3.0 | 0.00 | 0.02 | 0.02 | 55 | 1007.0 |
| 20260905101600 | 80 | 350 | 0.0 | 3.0 | 0.00 | 0.02 | 0.02 | 54 | 1006.8 |
| 20260905100117 | 80 | 350 | 1.0 | 2.0 | 0.00 | 0.02 | 0.02 | 53 | 1006.9 |
| 20260905094551 | 81 | 350 | 0.0 | 2.0 | 0.01 | 0.02 | 0.02 | 53 | 1007.1 |
| 20260905093050 | 81 | 350 | 0.0 | 2.0 | 0.01 | 0.02 | 0.02 | 52 | 1006.9 |
| 20260905091557 | 81 | 350 | 0.0 | 4.0 | 0.01 | 0.02 | 0.02 | 51 | 1006.5 |
| 20260905090048 | 80 | 309 | 10.0 | 24.0 | 0.02 | 0.02 | 0.02 | 53 | 1006.9 |
| 20260905084551 | 80 | 332 | 1.0 | 6.0 | 0.01 | 0.01 | 0.01 | 55 | 1006.9 |
| 20260905083104 | 81 | 327 | 0.0 | 3.0 | 0.01 | 0.01 | 0.01 | 56 | 1006.4 |
| 20260905081544 | 81 | 327 | 3.0 | 6.0 | 0.01 | 0.01 | 0.01 | 55 | 1006.5 |
| 20260905080042 | 82 | 319 | 1.0 | 6.0 | 0.00 | 0.00 | 0.00 | 55 | 1006.7 |
| 20260905074541 | 82 | 319 | 0.0 | 0.0 | 0.00 | 0.00 | 0.00 | 55 | 1006.6 |
| 20260905073041 | 82 | 319 | 0.0 | 0.0 | 0.00 | 0.00 | 0.00 | 54 | 1006.6 |
| 20260905071541 | 82 | 319 | 0.0 | 0.0 | 0.00 | 0.00 | 0.00 | 53 | 1006.7 |
| 20260905070038 | 82 | 319 | 0.0 | 1.0 | 0.00 | 0.00 | 0.00 | 53 | 1006.9 |
| 20260905064535 | 83 | 319 | 0.0 | 1.0 | 0.00 | 0.00 | 0.00 | 54 | 1007.0 |
| 20260905063034 | 83 | 319 | 0.0 | 2.0 | 0.00 | 0.00 | 0.00 | 53 | 1007.3 |
| 20260905061532 | 83 | 319 | 0.0 | 2.0 | 0.00 | 0.00 | 0.00 | 53 | 1007.6 |
| 20260905060040 | 83 | 319 | 0.0 | 0.0 | 0.00 | 0.00 | 0.00 | 53 | 1007.7 |
| 20260905054556 | 84 | 319 | 0.0 | 2.0 | 0.00 | 0.00 | 0.00 | 53 | 1007.8 |
| 20260905053027 | 84 | 319 | 2.0 | 4.0 | 0.00 | 0.00 | 0.00 | 53 | 1007.9 |
| 20260905051526 | 84 | 319 | 2.0 | 4.0 | 0.00 | 0.00 | 0.00 | 53 | 1007.8 |
| 20260905050023 | 84 | 319 | 2.0 | 5.0 | 0.00 | 0.00 | 0.00 | 52 | 1008.0 |
| 20260905044522 | 85 | 319 | 0.0 | 2.0 | 0.00 | 0.00 | 0.00 | 52 | 1008.0 |
| 20260905043021 | 85 | 319 | 0.0 | 0.0 | 0.00 | 0.00 | 0.00 | 51 | 1008.0 |
| 20260905041520 | 86 | 319 | 0.0 | 0.0 | 0.00 | 0.00 | 0.00 | 51 | 1008.0 |
| 20260905040016 | 86 | 319 | 0.0 | 0.0 | 0.00 | 0.00 | 0.00 | 50 | 1008.0 |
| 20260905034516 | 87 | 319 | 0.0 | 0.0 | 0.00 | 0.00 | 0.00 | 49 | 1008.0 |
| 20260905033018 | 87 | 319 | 0.0 | 0.0 | 0.00 | 0.00 | 0.00 | 49 | 1008.0 |
| 20260905031514 | 87 | 319 | 0.0 | 0.0 | 0.00 | 0.00 | 0.00 | 49 | 1008.1 |
| 20260905030014 | 88 | 319 | 0.0 | 0.0 | 0.00 | 0.00 | 0.00 | 48 | 1008.2 |
| 20260905024515 | 88 | 319 | 0.0 | 0.0 | 0.00 | 0.00 | 0.00 | 48 | 1008.1 |
| 20260905023014 | 88 | 319 | 0.0 | 0.0 | 0.00 | 0.00 | 0.00 | 47 | 1007.9 |
| 20260905021513 | 89 | 319 | 0.0 | 0.0 | 0.00 | 0.00 | 0.00 | 46 | 1007.9 |
| 20260905020012 | 89 | 319 | 0.0 | 0.0 | 0.00 | 0.00 | 0.00 | 45 | 1007.7 |
| 20260905014512 | 90 | 319 | 0.0 | 0.0 | 0.00 | 0.00 | 0.00 | 44 | 1007.7 |
| 20260905013014 | 91 | 319 | 0.0 | 2.0 | 0.00 | 0.00 | 0.00 | 43 | 1007.5 |
| 20260905011517 | 91 | 319 | 1.0 | 3.0 | 0.00 | 0.00 | 0.00 | 42 | 1007.3 |
| 20260905010015 | 92 | 319 | 1.0 | 3.0 | 0.00 | 0.00 | 0.00 | 41 | 1007.2 |
| 20260905004510 | 92 | 319 | 2.0 | 4.0 | 0.00 | 0.00 | 0.00 | 40 | 1007.1 |
| 20260905003009 | 93 | 319 | 1.0 | 4.0 | 0.00 | 0.00 | 0.00 | 38 | 1007.0 |
| 20260905001509 | 94 | 319 | 0.0 | 2.0 | 0.00 | 0.00 | 0.00 | 36 | 1006.8 |
| 20260905000008 | 95 | 319 | 1.0 | 3.0 | 0.00 | 0.00 | 0.00 | 35 | 1006.9 |
| 20260904234507 | 96 | 319 | 1.0 | 3.0 | 0.00 | 0.00 | 0.00 | 33 | 1006.7 |
| 20260904233109 | 96 | 319 | 2.0 | 4.0 | 0.00 | 0.00 | 0.00 | 33 | 1006.8 |
| 20260904231608 | 97 | 319 | 3.0 | 5.0 | 0.00 | 0.00 | 0.00 | 32 | 1006.9 |
| 20260904230006 | 97 | 319 | 1.0 | 3.0 | 0.00 | 0.00 | 0.00 | 31 | 1007.0 |
| 20260904224501 | 97 | 319 | 2.0 | 9.0 | 0.00 | 0.00 | 0.00 | 32 | 1007.2 |
| 20260904223002 | 97 | 323 | 3.0 | 6.0 | 0.00 | 0.00 | 0.00 | 32 | 1007.3 |
| 20260904221501 | 97 | 324 | 2.0 | 8.0 | 0.00 | 0.00 | 0.00 | 32 | 1007.3 |
| 20260904220104 | 98 | 321 | 3.0 | 8.0 | 0.00 | 0.00 | 0.00 | 32 | 1007.3 |
| 20260904214601 | 98 | 327 | 2.0 | 8.0 | 0.00 | 0.00 | 0.00 | 32 | 1007.3 |
| 20260904213058 | 99 | 331 | 6.0 | 9.0 | 0.00 | 0.00 | 0.00 | 31 | 1007.5 |
| 20260904211559 | 98 | 329 | 5.0 | 9.0 | 0.00 | 0.00 | 0.00 | 32 | 1007.5 |
| 20260904210058 | 97 | 335 | 3.0 | 11.0 | 0.00 | 0.00 | 0.00 | 32 | 1007.5 |
| 20260904204555 | 97 | 336 | 6.0 | 11.0 | 0.00 | 0.00 | 0.00 | 33 | 1007.6 |
| 20260904203058 | 97 | 344 | 2.0 | 6.0 | 0.00 | 0.00 | 0.00 | 32 | 1007.7 |
| 20260904201556 | 96 | 346 | 1.0 | 11.0 | 0.00 | 0.00 | 0.00 | 32 | 1007.9 |
| 20260904200109 | 97 | 336 | 4.0 | 10.0 | 0.00 | 0.00 | 0.00 | 32 | 1008.1 |